TimePST,TemperatureF,Dew PointF,Humidity,Sea Level PressureIn,VisibilityMPH,Wind Direction,Wind SpeedMPH,Gust SpeedMPH,PrecipitationIn,Events,Conditions,WindDirDegrees,DateUTC
12:15 AM,32.0,32.0,100,30.26,10.0,Calm,Calm,-,N/A,,Clear,0,2013-01-02 08:15:00
12:35 AM,32.0,32.0,100,30.26,10.0,Calm,Calm,-,N/A,,Clear,0,2013-01-02 08:35:00
12:55 AM,32.0,32.0,100,30.26,10.0,SSW,6.9,-,N/A,,Clear,200,2013-01-02 08:55:00
1:35 AM,32.0,32.0,100,30.25,10.0,SE,5.8,-,N/A,,Clear,140,2013-01-02 09:35:00
1:55 AM,33.8,33.8,100,30.25,10.0,South,8.1,-,N/A,,Clear,180,2013-01-02 09:55:00
2:15 AM,32.0,32.0,100,30.25,10.0,SSE,4.6,-,N/A,,Clear,150,2013-01-02 10:15:00
2:35 AM,33.8,33.8,100,30.25,10.0,South,8.1,-,N/A,,Clear,180,2013-01-02 10:35:00
2:55 AM,33.8,33.8,100,30.25,10.0,South,8.1,-,N/A,,Clear,190,2013-01-02 10:55:00
3:15 AM,33.8,33.8,100,30.25,10.0,SSW,4.6,-,N/A,,Clear,200,2013-01-02 11:15:00
3:35 AM,33.8,33.8,100,30.24,10.0,SW,4.6,-,N/A,,Clear,220,2013-01-02 11:35:00
3:55 AM,33.8,33.8,100,30.24,10.0,SSW,6.9,-,N/A,,Clear,210,2013-01-02 11:55:00
4:15 AM,37.4,35.6,93,30.23,10.0,SW,5.8,-,N/A,,Clear,220,2013-01-02 12:15:00
4:35 AM,35.6,35.6,100,30.23,10.0,SSW,6.9,-,N/A,,Clear,210,2013-01-02 12:35:00
4:55 AM,35.6,35.6,100,30.23,10.0,SW,5.8,-,N/A,,Clear,220,2013-01-02 12:55:00
5:15 AM,33.8,33.8,100,30.22,10.0,SW,5.8,-,N/A,,Clear,220,2013-01-02 13:15:00
5:35 AM,35.6,35.6,100,30.22,10.0,SSW,6.9,-,N/A,,Clear,200,2013-01-02 13:35:00
5:55 AM,33.8,33.8,100,30.22,10.0,SSW,5.8,-,N/A,,Clear,210,2013-01-02 13:55:00
6:15 AM,39.2,35.6,87,30.22,10.0,SSW,5.8,-,N/A,,Clear,210,2013-01-02 14:15:00
6:35 AM,35.6,35.6,100,30.22,10.0,SSW,4.6,-,N/A,,Clear,200,2013-01-02 14:35:00
6:55 AM,37.4,35.6,93,30.23,10.0,SSW,4.6,-,N/A,,Clear,210,2013-01-02 14:55:00
7:15 AM,32.0,32.0,100,30.23,10.0,SSW,5.8,-,N/A,,Clear,200,2013-01-02 15:15:00
7:35 AM,32.0,32.0,100,30.23,10.0,SSW,4.6,-,N/A,,Clear,200,2013-01-02 15:35:00
7:55 AM,33.8,33.8,100,30.24,10.0,SSW,5.8,-,N/A,,Clear,200,2013-01-02 15:55:00
8:15 AM,35.6,35.6,100,30.24,10.0,SW,4.6,-,N/A,,Clear,220,2013-01-02 16:15:00
8:35 AM,37.4,35.6,93,30.24,10.0,South,3.5,-,N/A,,Clear,190,2013-01-02 16:35:00
8:55 AM,41.0,35.6,81,30.25,10.0,SSW,3.5,-,N/A,,Clear,210,2013-01-02 16:55:00
9:15 AM,42.8,37.4,81,30.25,10.0,Calm,Calm,-,N/A,,Clear,0,2013-01-02 17:15:00
9:35 AM,44.6,35.6,71,30.26,10.0,SE,4.6,-,N/A,,Clear,140,2013-01-02 17:35:00
9:55 AM,46.4,35.6,66,30.26,10.0,SSE,6.9,-,N/A,,Clear,160,2013-01-02 17:55:00
10:15 AM,46.4,33.8,62,30.26,10.0,SSE,4.6,-,N/A,,Clear,150,2013-01-02 18:15:00
10:35 AM,48.2,33.8,58,30.26,10.0,SE,5.8,-,N/A,,Clear,140,2013-01-02 18:35:00
10:55 AM,48.2,35.6,62,30.26,10.0,South,5.8,-,N/A,,Clear,170,2013-01-02 18:55:00
11:15 AM,50.0,32.0,50,30.25,10.0,South,4.6,-,N/A,,Clear,180,2013-01-02 19:15:00
11:35 AM,48.2,32.0,54,30.24,10.0,South,8.1,-,N/A,,Clear,190,2013-01-02 19:35:00
11:55 AM,50.0,35.6,58,30.24,10.0,SE,5.8,-,N/A,,Clear,140,2013-01-02 19:55:00
12:15 PM,50.0,32.0,50,30.22,10.0,SE,9.2,-,N/A,,Clear,130,2013-01-02 20:15:00
12:35 PM,50.0,35.6,58,30.22,10.0,SE,6.9,-,N/A,,Clear,140,2013-01-02 20:35:00
12:55 PM,50.0,33.8,54,30.21,10.0,SE,8.1,-,N/A,,Clear,130,2013-01-02 20:55:00
1:15 PM,51.8,35.6,54,30.20,10.0,SE,9.2,-,N/A,,Clear,130,2013-01-02 21:15:00
1:35 PM,51.8,33.8,50,30.19,10.0,SSE,4.6,-,N/A,,Clear,150,2013-01-02 21:35:00
1:55 PM,53.6,37.4,54,30.19,10.0,South,9.2,-,N/A,,Clear,180,2013-01-02 21:55:00
2:15 PM,51.8,37.4,58,30.18,10.0,South,8.1,-,N/A,,Clear,180,2013-01-02 22:15:00
2:35 PM,53.6,35.6,51,30.18,10.0,SSE,4.6,-,N/A,,Clear,150,2013-01-02 22:35:00
2:55 PM,53.6,32.0,44,30.18,10.0,SSE,5.8,-,N/A,,Clear,150,2013-01-02 22:55:00
3:15 PM,53.6,32.0,44,30.18,10.0,SE,4.6,-,N/A,,Clear,140,2013-01-02 23:15:00
3:35 PM,53.6,32.0,44,30.17,10.0,SSE,5.8,-,N/A,,Clear,150,2013-01-02 23:35:00
3:55 PM,53.6,32.0,44,30.18,10.0,SSE,4.6,-,N/A,,Clear,150,2013-01-02 23:55:00
4:15 PM,51.8,35.6,54,30.17,10.0,SSW,4.6,-,N/A,,Clear,210,2013-01-03 00:15:00
4:35 PM,50.0,35.6,58,30.17,10.0,SW,5.8,-,N/A,,Clear,220,2013-01-03 00:35:00
4:55 PM,48.2,37.4,66,30.17,10.0,South,5.8,-,N/A,,Clear,180,2013-01-03 00:55:00
5:15 PM,46.4,35.6,66,30.16,10.0,SW,5.8,-,N/A,,Clear,230,2013-01-03 01:15:00
5:35 PM,46.4,37.4,71,30.17,10.0,SSW,5.8,-,N/A,,Clear,200,2013-01-03 01:35:00
5:55 PM,44.6,37.4,76,30.17,10.0,SSW,6.9,-,N/A,,Clear,200,2013-01-03 01:55:00
6:15 PM,41.0,37.4,87,30.17,10.0,South,6.9,-,N/A,,Clear,190,2013-01-03 02:15:00
6:35 PM,41.0,35.6,81,30.16,10.0,SSW,6.9,-,N/A,,Clear,210,2013-01-03 02:35:00
6:55 PM,41.0,35.6,81,30.16,10.0,South,6.9,-,N/A,,Clear,190,2013-01-03 02:55:00
7:15 PM,39.2,35.6,87,30.17,10.0,South,8.1,-,N/A,,Clear,190,2013-01-03 03:15:00
7:35 PM,39.2,35.6,87,30.17,10.0,SSW,5.8,-,N/A,,Clear,200,2013-01-03 03:35:00
7:55 PM,39.2,35.6,87,30.17,10.0,South,3.5,-,N/A,,Clear,170,2013-01-03 03:55:00
8:15 PM,39.2,35.6,87,30.18,10.0,South,5.8,-,N/A,,Clear,180,2013-01-03 04:15:00
8:35 PM,39.2,37.4,93,30.17,10.0,SSW,5.8,-,N/A,,Clear,200,2013-01-03 04:35:00
8:55 PM,37.4,35.6,93,30.18,10.0,South,4.6,-,N/A,,Clear,190,2013-01-03 04:55:00
9:15 PM,37.4,37.4,100,30.18,10.0,South,6.9,-,N/A,,Clear,190,2013-01-03 05:15:00
9:35 PM,37.4,37.4,100,30.19,10.0,South,5.8,-,N/A,,Clear,190,2013-01-03 05:35:00
9:55 PM,37.4,37.4,100,30.19,10.0,South,4.6,-,N/A,,Clear,180,2013-01-03 05:55:00
10:15 PM,37.4,35.6,93,30.19,10.0,South,4.6,-,N/A,,Clear,190,2013-01-03 06:15:00
10:35 PM,37.4,37.4,100,30.19,10.0,South,4.6,-,N/A,,Clear,190,2013-01-03 06:35:00
10:55 PM,35.6,35.6,100,30.20,10.0,Calm,Calm,-,N/A,,Clear,0,2013-01-03 06:55:00
11:15 PM,33.8,33.8,100,30.20,10.0,Calm,Calm,-,N/A,,Clear,0,2013-01-03 07:15:00
11:55 PM,33.8,33.8,100,30.20,10.0,SSW,5.8,-,N/A,,Clear,200,2013-01-03 07:55:00